Weather Roundup
Issued by NWS Chicago, IL

Home | Current Version | Previous Version | Text Only | Print | Product List | Glossary On
Versions: 1 2 3 4 5 6 7 8 9 10 11 12 13 14 15 16 17 18 19 20 21 22 23 24 25 26 27 28 29 30 31 32 33 34 35 36 37 38 39 40 41 42 43 44 45 46 47 48 49 50
000
NZUS59 KLOT 201510
HRRLOT

CHICAGO AREA WEATHER ROUNDUP
NATIONAL WEATHER SERVICE CHICAGO/ROMEOVILLE IL
900 AM CST SAT DEC 20 2014

NOTE: "FAIR" INDICATES FEW OR NO CLOUDS BELOW 12,000 FEET WITH NO
SIGNIFICANT WEATHER AND/OR OBSTRUCTIONS TO VISIBILITY.

* THESE STATIONS ARE NOT UNDER NWS QUALITY CONTROL. THEY ALSO MAY NOT
  REPORT WEATHER SUCH AS PRECIPITATION OR FOG.

ILZ005-006-012>014-019>023-201600-
NORTHEAST ILLINOIS

CITY           SKY/WX    TMP DP  RH WIND       PRES   REMARKS
OHARE          CLOUDY    30  23  75 SW3       30.27S
MIDWAY         CLOUDY    32  26  78 S5        30.29R WCI  27
AURORA         CLOUDY    29  23  78 CALM      30.28S HAZE
LANSING*       CLOUDY    30  27  88 S5        30.30R FOG     WCI  25
JOLIET*        CLOUDY    29  24  81 CALM      30.29S
WAUKEGAN       CLOUDY    28  22  78 CALM      30.27S
DUPAGE AIRPORT CLOUDY    29  23  78 CALM      30.27S
WHEELING       CLOUDY    30  23  75 CALM      30.29S
KANKAKEE*      CLOUDY    30  27  90 CALM      30.29F FOG
MORRIS*        CLOUDY    29  27  92 CALM      30.28R FOG
LEWIS AIRPORT* CLOUDY    30  25  84 CALM      30.28S
NORTHERLY IS     N/A     32  25  76 S5          N/A  WCI  27
$$

WIZ051-052-058>065-066-070>072-201600-
SOUTHEAST WISCONSIN

CITY           SKY/WX    TMP DP  RH WIND       PRES   REMARKS
MILWAUKEE      CLOUDY    27  19  72 W3        30.28R
KENOSHA*       CLOUDY    27  21  78 W3        30.27S
RACINE*        CLOUDY    27  19  72 NW3       30.29S
BURLINGTON     CLOUDY    26  20  80 CALM      30.27S
WAUKESHA       CLOUDY    27  19  74 CALM      30.27S
WEST BEND      CLOUDY    27  19  74 CALM      30.25F
$$

INZ001>003-010>013-019-020-201600-
NORTHWEST INDIANA

CITY           SKY/WX    TMP DP  RH WIND       PRES   REMARKS
GARY*          CLOUDY    32  23  69 CALM      30.30S
MICHIGAN CITY* NOT AVBL
RENSSELAER*    NOT AVBL
VALPARAISO     CLOUDY    30  25  81 CALM      30.29S
$$

LMZ740>746-201600-
SOUTHERN LAKE MICHIGAN

STATION/POSITION TIME  SKY/WX   TEMP WIND        PRES    VSBY
                                AIR  DIR/SP/G
                 (UTC)          (F)  (DEG/KT/KT) (MB)    (MI)
HARRISON CRIB    1500            31  190/  9/ 10   N/A
BURNHAM HARBOR   1500            32  230/  2/  6   N/A
CALUMET HARBOR   1500            31  200/  4/  6 1024.4R
BURNS HARBOR     NOT AVBL
MICHIGAN CITY    NOT AVBL
$$

ABBREVIATIONS USED IN REMARKS
   TC - TEMPERATURE IN CELSIUS
  WCI - WIND CHILL INDEX
   HX - HEAT INDEX
  VSB - VISIBILITY
$$



USA.gov is the U.S. government's official web portal to all federal, state and local government web resources and services.